Regional Weather Roundup
Issued by NWS

Home | Current Version | Previous Version | Graphics & Text | Print | Product List | Glossary Off
Versions: 1 2 3 4 5 6 7 8 9 10 11 12 13 14 15 16 17 18 19 20 21 22 23 24 25 26 27 28 29 30 31 32 33 34 35 36 37 38 39 40 41 42 43 44 45 46 47 48 49 50

000
ASUS43 KMPX 010710
RWRMN
WEATHER ROUNDUP FOR MINNESOTA
NATIONAL WEATHER SERVICE TWIN CITIES/CHANHASSEN MN
200 AM CDT SAT AUG 01 2015


NOTE: "FAIR" INDICATES FEW OR NO CLOUDS BELOW 12,000 FEET WITH NO
SIGNIFICANT WEATHER AND/OR OBSTRUCTIONS TO VISIBILITY. N/A MEANS
CURRENT SKY AND/OR WEATHER CONDITIONS ARE NOT AVAILABLE.

MNZ060>063-068>070-010800-
   Twin Cities Metro

CITY           SKY/WX    TMP DP  RH WIND       PRES   REMARKS
TWIN CITIES    MOCLDY    70  58  65 W5        30.00S
ST PAUL        MOCLDY    69  58  67 CALM      30.00S
CRYSTAL        MOCLDY    70  58  65 W6        29.98F
BLAINE         PTCLDY    68  59  73 CALM      30.00S
LAKEVILLE      MOCLDY    64  57  77 SW5       30.01S
EDEN PRAIRIE   PTCLDY    66  59  78 W5        29.99F
SOUTH ST PAUL  MOCLDY    69  58  67 W5        30.00S
LAKE ELMO      MOCLDY    63  59  88 CALM      30.01S
$$
MNZ001>005-007-008-013>017-022>024-027-028-010800-
   Northwest Minnesota

CITY           SKY/WX    TMP DP  RH WIND       PRES   REMARKS
BEMIDJI        CLEAR     56  51  82 SW3       29.98F
HALLOCK        CLEAR     55  54  94 CALM      29.95S
ROSEAU         CLEAR     54  48  82 CALM      29.95S
WARROAD        CLEAR     59  55  88 SW7       29.94S
THIEF RVR FALL CLEAR     55  52  88 CALM      29.97F
CROOKSTON      CLEAR     55  52  88 S3        29.98S
FOSSTON        CLEAR     52  48  87 S7        30.00S
DETROIT LAKES  CLEAR     63  55  77 CALM      30.02S
MOORHEAD       CLEAR     59  57  94 CALM      30.00F
PARK RAPIDS    CLEAR     58  51  78 CALM      30.00F
MAHNOMEN       FAIR      55  52  89 S3        29.99F
$$
MNZ006-009>011-018-025>026-010800-
   North Central Minnesota

CITY           SKY/WX    TMP DP  RH WIND       PRES   REMARKS
BAUDETTE       CLEAR     56  49  77 W6        29.93S
FLAG ISLAND    CLEAR     63  54  72 W10       29.91S
INTL FALLS     CLEAR     55  51  86 W6        29.92S
WASKISH        CLEAR     66  57  72 W7        29.95S
BIG FORK       CLEAR     52  48  87 CALM      29.96F
LONGVILLE      CLEAR     54  52  94 CALM      29.98F
GRAND RAPIDS   CLEAR     61  50  67 W3        29.97F
CRANE LAKE     CLEAR     50  50 100 SE1       29.94S
ORR            CLEAR     55  50  82 CALM      29.91F
COOK           CLEAR     52  48  87 CALM      29.95S
WALKER         FAIR      54  51  92 CALM      29.99S
$$
MNZ012-019>021-037-010800-
   Northeast Minnesota

CITY           SKY/WX    TMP DP  RH WIND       PRES   REMARKS
DULUTH         CLEAR     61  49  64 W9        29.94F
ELY            CLEAR     54  52  94 CALM      29.92F
HIBBING        CLEAR     59  47  64 W5        29.95S
EVELETH        CLEAR     52  46  82 CALM      29.95F
DULUTH HARBOR  CLEAR     64  54  68 W12       29.94S
TWO HARBORS    CLEAR     61  52  72 CALM      29.92R
SILVER BAY     CLEAR     59  52  77 CALM      29.90F
GRAND MARAIS     N/A     64  55  72 VRB6      29.85S
G MARAIS ARPRT   N/A     57  52  82 W6        29.90S
$$
MNZ029>031-032-039>041-046>048-054>057-064-010800-
   West Central Minnesota

CITY           SKY/WX    TMP DP  RH WIND       PRES   REMARKS
FERGUS FALLS   CLEAR     63  57  82 CALM      30.00F
WHEATON        CLEAR     63  57  82 NE3       30.02S
MORRIS         CLEAR     63  61  94 NE5       30.00S
ALEXANDRIA     PTCLDY    64  61  90 CALM      30.03S
ELBOW LAKE     FAIR      65  64  95 CALM      30.01S
WADENA         CLEAR     57  54  88 CALM      30.00F
GLENWOOD       CLEAR     64  59  82 N3        30.02F
APPLETON       CLEAR     63  57  82 CALM      29.99S
BENSON         CLEAR     63  57  82 CALM      30.00S
ORTONVILLE     CLEAR     66  61  82 W3        30.00S
MADISON        CLEAR     63  59  88 W7        30.00S
WILLMAR        FAIR      63  59  88 CALM      30.01F
$$
MNZ033>034-036-042>043-049>051-058-059-010800-
   Central Minnesota

CITY           SKY/WX    TMP DP  RH WIND       PRES   REMARKS
ST CLOUD       PTCLDY    61  59  93 CALM      30.00S
SAUK CENTRE    FAIR      62  59  92 CALM      30.02S
PAYNESVILLE    PTCLDY    58  57  97 CALM      30.02S
AITKIN         CLEAR     54  48  82 CALM      29.97F
PINE RIVER     CLEAR     52  48  87 CALM      30.03S
BRAINERD       CLEAR     54  53  97 S3        30.00F
STAPLES        PTCLDY    57  54  88 CALM      30.00F
LONG PRAIRIE   MOCLDY    61  59  94 CALM      30.02F
LITTLE FALLS   MOCLDY    57  54  88 CALM      30.01S
LITCHFIELD     PTCLDY    66  63  88 CALM      30.01F
BUFFALO        PTCLDY    65  59  81 CALM      30.01F
MAPLE LAKE     PTCLDY    63  61  94 CALM      30.02S
$$
MNZ037-044-045-052-053-010800-
   East Central Minnesota

CITY           SKY/WX    TMP DP  RH WIND       PRES   REMARKS
PRINCETON      PTCLDY    63  57  82 CALM      30.00S
MORA           PTCLDY    59  54  82 CALM      30.01S
CAMBRIDGE      PTCLDY    66  55  68 W2        29.98S
RUSH CITY      MOCLDY    58  55  89 CALM      29.99S
MOOSE LAKE     PTCLDY    52  50  93 SW3       29.96F
HINCKLEY       FAIR      54  52  94 CALM      29.99S
CLOQUET        CLEAR     57  46  67 W5        29.96F
MCGREGOR       CLEAR     61  52  72 W5        29.99S
$$
MNZ071>073-080-081-089-090-097-098-010800-
   Southwest Minnesota

CITY           SKY/WX    TMP DP  RH WIND       PRES   REMARKS
MONTEVIDEO     CLEAR     66  57  72 W3        30.01S
GRANITE FALLS  CLEAR     62  59  91 SW3       30.01F
CANBY          CLEAR     68  58  70 W9        30.02S
MARSHALL       CLEAR     70  57  64 W15       30.02F
REDWOOD FALLS  CLEAR     65  59  81 CALM      30.00F
OLIVIA         CLEAR     61  54  77 S3        30.00S
PIPESTONE      CLEAR     64  61  88 W6        30.06F
WINDOM         CLEAR     64  59  82 W5        30.04F
WORTHINGTON    CLEAR     66  57  72 SW8       30.06S
JACKSON        CLEAR     66  59  77 SW6       30.05F
TRACY          CLEAR     68  61  77 SW9       30.02F
SLAYTON        CLEAR     67  61  82 W7        30.06S
$$
MNZ065>067-074>077-082>085-091>093-010800-
   South Central Minnesota

CITY           SKY/WX    TMP DP  RH WIND       PRES   REMARKS
MANKATO        PTCLDY    66  57  72 S6        30.02F
NEW ULM        CLEAR     63  59  88 CALM      30.01F
ST JAMES       CLEAR     64  61  88 CALM      30.03F
FAIRMONT       CLEAR     64  55  72 SW6       30.03F
GLENCOE        MOCLDY    65  61  85 CALM      30.00F
FARIBAULT      PTCLDY    66  61  82 S5        30.03S
OWATONNA       PTCLDY    64  57  77 CALM      30.03F
WASECA         CLEAR     59  55  88 CALM      30.05S
ALBERT LEA     CLEAR     64  61  88 SW3       30.05S
$$
MNZ078>079-086>088-094>096-010800-
   Southeast Minnesota

CITY           SKY/WX    TMP DP  RH WIND       PRES   REMARKS
ROCHESTER      PTCLDY    63  57  81 SW10      30.04F
RED WING       PTCLDY    61  57  88 N3        29.99S
STANTON        MOCLDY    65  59  80 S5        30.00S
DODGE CENTER   MOCLDY    63  59  88 SW3       30.04S
WINONA         CLEAR     61  59  94 CALM      30.01S
AUSTIN         CLEAR     63  59  88 CALM      30.04F
PRESTON        PTCLDY    65  55  69 W7        30.04F
$$
ABBREVIATIONS USED IN REMARKS
   TC - TEMPERATURES IN CELSIUS
  WCI - WIND CHILL INDEX
   HX - HEAT INDEX
  VSB - VISIBILITY
$$


USA.gov is the U.S. government's official web portal to all federal, state and local government web resources and services.